loading
|
Showing default

HORACIO, 59098

Orbit data source: Space-Track

HORACIO, 59098 is a payload satellite owned by Satlantis (ES) in SSO that was launched on Mon, 04 Mar 2024 UTC via an FALCON 9 launch vehicle from the Air Force Western Test Range (AFWTR). Payloads include a variety of satellites, spacecraft, and rockets equipped with specific instruments for various scientific and technological missions. These include communications satellites like Starlink; space stations such as the ISS; scientific satellites like the Hubble; Earth observation satellites from companies like Planet Labs, Umbra, and HawkEye 360; GPS; miniature CubeSats for education and research; and military/defense satellites.

Loading next visibility...
Loading greatness...
HORACIO details
Identifier
59098, 2024-043A
Orbit
SSO
Last TLE update9 hours ago
Origin
Flag of ESSatlantis (ES / SPN)
ManufacturerNanoAvionics
Mission statusOperational
MissionCommercial Imaging
Bus & MotorCUBESAT 16U M16P, Unknown motor
Mass~20 kg wet, ~20 kg dry
Launch date (UTC)
2024-03-04 (7 months ago)
Launch vehicle
FALCON 9
Launch site
Air Force Western Test Range (AFWTR)
Object type
Payload
Rocket body
Debris
Radar Cross SectionMedium (>0.1 m² and <1 m²)

Expand to show TLE details & history

TLE from 9 hours ago
0 HORACIO
1 59098U 24043A   24261.59317139  .00015417  00000-0  14976-2 0  9994
2 59098  97.7783  23.7444 0011751 352.4306   7.6734 14.92643194 29333
Epoch: 2024-09-17T14:14Z
Definitive object data (Epoch: 2024-09-17T14:14:10.008Z)
Latitude0.00001°
Longitude173.19709°
Altitude584.624 km
Speed7.572 km/s
True Right ascension01h 34m 58s
True Declination0° 00' 00"
Sunlit
Object was in full shadow at TLE epoch
Predictive object data (real-time)
Latitude12.36353°
Longitude-4.73452°
Altitude600.115 km
Speed7.556 km/s
Apparent Right ascension10h 46m 21s
Apparent Declination-34° 53' 31"
Sunlit
Object is in daylight
Predictive observer data (real-time)
Local Sidereal Time15:50:42
Azimuth234.625° WSW
Elevation-12.462°
Doppler factor1
Orbital elements
Apogee594.901 km
Perigee578.532 km
Semi-major axis6,964.853 km
Eccentricity0.0011751
Inclination97.7783°
RAAN23.7444°
Arg. of periapsis352.4306°
True anomaly7.69141°
Mean anomaly7.6734°
Eccentric anomaly7.6824°
Mean motion3.73401 °/min
BSTAR0.0014976
Period96.41 mins
No data available

HORACIO Visibility forecast

Observer location: 39.9160978°, -105.1181434

HORACIO is not visible in the next 10 days
Span
Click to sort rows by Start time (UTC) header in descending order
Start Az.
Max El. time (UTC)
Max El. Az.
Max El.
End time (UTC)
End Az.